Sparta, WI

5:01 AM CDT on July 30, 2016 (GMT -0500)
Sparta-Fort McCoy

Weather History for KCMY - February, 2012

Change the Weather History Date:

Tuesday, February 21, 2012

  Actual Average Record
Temperature  
Mean Temperature 36 °F -  
Max Temperature 39 °F 35 °F 59 °F (1981)
Min Temperature 32 °F 14 °F -23 °F (2008)
Degree Days  
Heating Degree Days 30    
Moisture  
Dew Point 31 °F    
Average Humidity 87    
Maximum Humidity 100    
Minimum Humidity 60    
Precipitation  
Precipitation 0.02 in - - ()
Sea Level Pressure  
Sea Level Pressure 29.59 in    
Wind  
Wind Speed 8 mph (SW)    
Max Wind Speed 22 mph    
Max Gust Speed 30 mph    
Visibility 8 miles    
Events Rain , Snow    
Averages and records for this station are not official NWS values.
T = Trace of Precipitation, MM = Missing Value Source: NWS Daily Summary

Daily Weather History Graph

Daily Weather History Graph

Search for Another Location

Airport or City:

Trip Planner

Search our weather history database for the weather conditions in past years. The results will help you decide how hot, cold, wet, or windy it might be!

Date:

Astronomy

Feb. 21, 2012 Rise Set
Actual Time 6:53 AM CST 5:40 PM CST
Civil Twilight 6:24 AM CST 6:09 PM CST
Nautical Twilight 5:50 AM CST 6:43 PM CST
Astronomical Twilight 5:17 AM CST 7:16 PM CST
Moon 6:21 AM CST (2/21) 5:49 PM CST (2/21)
Length of Visible Light 11h 45m
Length of Day
10h 46m
Waning Crescent, 0% of the Moon is Illuminated
Feb 21
Waning Crescent
Feb 21
New
Feb 29
First Quarter
Mar 8
Full
Mar 14
Last Quarter

Hourly Weather History & Observations

Time (CST) Temp. Windchill Dew Point Humidity Pressure Visibility Wind Dir Wind Speed Gust Speed Precip Events Conditions
12:15 AM 32.0 °F 26.4 °F 32.0 °F 100% 29.76 in 2.0 mi SE 5.8 mph - N/A Snow Light Snow
12:35 AM 32.0 °F 24.8 °F 32.0 °F 100% 29.75 in 2.5 mi SE 8.1 mph - 0.01 in Snow Light Snow
12:55 AM 32.0 °F 27.5 °F 32.0 °F 100% 29.73 in 2.0 mi SE 4.6 mph - 0.01 in Snow Light Snow
1:15 AM 32.0 °F 25.6 °F 32.0 °F 100% 29.72 in 3.0 mi SE 6.9 mph - N/A Snow Light Snow
1:35 AM 32.0 °F 25.6 °F 32.0 °F 100% 29.70 in 4.0 mi SE 6.9 mph - N/A Snow Light Snow
1:55 AM 32.0 °F 26.4 °F 32.0 °F 100% 29.69 in 5.0 mi SE 5.8 mph - N/A Snow Light Snow
2:15 AM 32.0 °F 25.6 °F 32.0 °F 100% 29.68 in 7.0 mi SE 6.9 mph - N/A Snow Light Snow
2:35 AM 32.0 °F 26.4 °F 32.0 °F 100% 29.66 in 10.0 mi SE 5.8 mph - N/A   Overcast
2:55 AM 32.0 °F 24.8 °F 32.0 °F 100% 29.65 in 7.0 mi SSE 8.1 mph - N/A Snow Light Snow
3:35 AM 32.0 °F 25.6 °F 32.0 °F 100% 29.62 in 10.0 mi SSE 6.9 mph - N/A   Overcast
3:55 AM 32.0 °F 26.4 °F 32.0 °F 100% 29.61 in 2.0 mi SSE 5.8 mph - 0.01 in Snow Light Snow
4:15 AM 32.0 °F 27.5 °F 32.0 °F 100% 29.60 in 4.0 mi SE 4.6 mph - N/A Snow Light Snow
4:35 AM 32.0 °F 26.4 °F 32.0 °F 100% 29.58 in 7.0 mi SSE 5.8 mph - N/A   Overcast
4:55 AM 32.0 °F 26.4 °F 32.0 °F 100% 29.58 in 7.0 mi South 5.8 mph - N/A   Overcast
5:15 AM 33.8 °F 29.6 °F 32.0 °F 93% 29.57 in 4.0 mi South 4.6 mph - N/A Rain Light Rain
5:35 AM 33.8 °F 29.6 °F 32.0 °F 93% 29.56 in 7.0 mi South 4.6 mph - N/A   Overcast
5:55 AM 33.8 °F 29.6 °F 32.0 °F 93% 29.56 in 7.0 mi South 4.6 mph - N/A   Overcast
6:15 AM 33.8 °F 30.8 °F 32.0 °F 93% 29.55 in 7.0 mi South 3.5 mph - N/A Rain Light Rain
6:35 AM 33.8 °F 30.8 °F 32.0 °F 93% 29.55 in 10.0 mi South 3.5 mph - N/A   Overcast
6:55 AM 33.8 °F 29.6 °F 32.0 °F 93% 29.55 in 10.0 mi SSW 4.6 mph - N/A   Overcast
7:15 AM 33.8 °F 30.8 °F 32.0 °F 93% 29.55 in 10.0 mi SSW 3.5 mph - N/A   Overcast
7:35 AM 33.8 °F 28.6 °F 32.0 °F 93% 29.55 in 5.0 mi SSW 5.8 mph - N/A Snow Light Snow
7:55 AM 33.8 °F 28.6 °F 32.0 °F 93% 29.55 in 4.0 mi SSW 5.8 mph - N/A   Overcast
8:15 AM 33.8 °F 29.6 °F 32.0 °F 93% 29.55 in 5.0 mi SSW 4.6 mph - N/A   Overcast
8:35 AM 33.8 °F 29.6 °F 32.0 °F 93% 29.54 in 5.0 mi SSW 4.6 mph - N/A Rain Light Rain
8:55 AM 33.8 °F 28.6 °F 32.0 °F 93% 29.54 in 4.0 mi SSW 5.8 mph - N/A Rain Light Rain
9:15 AM 33.8 °F 30.8 °F 32.0 °F 93% 29.55 in 5.0 mi SSW 3.5 mph - N/A   Overcast
9:35 AM 33.8 °F 30.8 °F 33.8 °F 100% 29.55 in 5.0 mi SW 3.5 mph - N/A   Overcast
9:55 AM 33.8 °F 28.6 °F 32.0 °F 93% 29.55 in 5.0 mi WSW 5.8 mph - N/A   Overcast
10:15 AM 33.8 °F 27.0 °F 32.0 °F 93% 29.55 in 5.0 mi WSW 8.1 mph - N/A   Overcast
10:35 AM 33.8 °F 24.8 °F 32.0 °F 93% 29.55 in 5.0 mi WSW 12.7 mph 16.1 mph N/A   Overcast
10:55 AM 33.8 °F 25.3 °F 32.0 °F 93% 29.55 in 10.0 mi WSW 11.5 mph 18.4 mph N/A   Overcast
11:15 AM 33.8 °F 24.8 °F 32.0 °F 93% 29.56 in 10.0 mi West 12.7 mph 18.4 mph N/A   Overcast
11:35 AM 35.6 °F 28.0 °F 32.0 °F 87% 29.56 in 10.0 mi West 10.4 mph 17.3 mph N/A   Overcast
11:55 AM 37.4 °F 29.8 °F 32.0 °F 81% 29.56 in 10.0 mi West 11.5 mph 20.7 mph N/A   Overcast
12:15 PM 37.4 °F 28.9 °F 32.0 °F 81% 29.55 in 10.0 mi West 13.8 mph 21.9 mph N/A   Overcast
12:35 PM 37.4 °F 29.8 °F 32.0 °F 81% 29.55 in 10.0 mi West 11.5 mph 18.4 mph N/A   Mostly Cloudy
12:55 PM 39.2 °F 30.2 °F 32.0 °F 75% 29.55 in 10.0 mi West 17.3 mph 23.0 mph N/A   Mostly Cloudy
1:15 PM 37.4 °F 28.5 °F 30.2 °F 75% 29.55 in 10.0 mi West 15.0 mph 21.9 mph N/A   Overcast
1:35 PM 39.2 °F 31.6 °F 32.0 °F 75% 29.54 in 10.0 mi West 12.7 mph 20.7 mph N/A   Overcast
1:55 PM 39.2 °F 30.8 °F 32.0 °F 75% 29.54 in 10.0 mi West 15.0 mph - N/A   Overcast
2:15 PM 37.4 °F 28.9 °F 32.0 °F 81% 29.54 in 10.0 mi West 13.8 mph 18.4 mph N/A   Mostly Cloudy
2:55 PM 37.4 °F 29.3 °F 30.2 °F 75% 29.55 in 10.0 mi WSW 12.7 mph 20.7 mph N/A   Overcast
3:15 PM 37.4 °F 30.3 °F 30.2 °F 75% 29.55 in 10.0 mi WSW 10.4 mph 17.3 mph N/A   Overcast
3:35 PM 37.4 °F 29.8 °F 30.2 °F 75% 29.56 in 10.0 mi West 11.5 mph 19.6 mph N/A   Overcast
3:55 PM 37.4 °F 31.4 °F 30.2 °F 75% 29.55 in 10.0 mi WSW 8.1 mph 18.4 mph N/A   Overcast
4:15 PM 37.4 °F 29.8 °F 30.2 °F 75% 29.56 in 10.0 mi WSW 11.5 mph 20.7 mph N/A   Overcast
4:35 PM 37.4 °F 29.8 °F 28.4 °F 70% 29.56 in 10.0 mi WSW 11.5 mph 23.0 mph N/A   Overcast
4:55 PM 35.6 °F 28.0 °F 28.4 °F 75% 29.56 in 10.0 mi WSW 10.4 mph - N/A   Overcast
5:15 PM 35.6 °F 29.2 °F 28.4 °F 75% 29.57 in 10.0 mi WSW 8.1 mph - N/A   Overcast
5:35 PM 35.6 °F 25.2 °F 28.4 °F 75% 29.58 in 10.0 mi West 18.4 mph 29.9 mph N/A   Overcast
5:55 PM 33.8 °F 21.9 °F 26.6 °F 75% 29.60 in 10.0 mi West 21.9 mph 28.8 mph N/A   Overcast
6:15 PM 33.8 °F 24.8 °F 26.6 °F 75% 29.60 in 10.0 mi West 12.7 mph 25.3 mph N/A   Overcast
6:55 PM 33.8 °F 26.4 °F 24.8 °F 70% 29.61 in 10.0 mi West 9.2 mph 21.9 mph N/A   Overcast
7:15 PM 33.8 °F 25.8 °F 24.8 °F 70% 29.60 in 10.0 mi West 10.4 mph 16.1 mph N/A   Overcast
7:35 PM 33.8 °F 25.3 °F 24.8 °F 70% 29.60 in 10.0 mi West 11.5 mph 20.7 mph N/A   Overcast
7:55 PM 33.8 °F 24.8 °F 26.6 °F 75% 29.60 in 10.0 mi West 12.7 mph - N/A   Overcast
8:15 PM 33.8 °F 25.8 °F 26.6 °F 75% 29.60 in 10.0 mi WSW 10.4 mph - N/A   Overcast
8:35 PM 33.8 °F 24.3 °F 24.8 °F 70% 29.60 in 10.0 mi West 13.8 mph 21.9 mph N/A   Overcast
8:55 PM 33.8 °F 23.9 °F 21.2 °F 60% 29.61 in 10.0 mi West 15.0 mph 25.3 mph N/A   Overcast
9:15 PM 33.8 °F 24.3 °F 21.2 °F 60% 29.61 in 10.0 mi West 13.8 mph 20.7 mph N/A   Mostly Cloudy
9:35 PM 32.0 °F 23.6 °F 21.2 °F 64% 29.60 in 10.0 mi West 10.4 mph 18.4 mph N/A   Scattered Clouds
9:55 PM 32.0 °F 23.0 °F 21.2 °F 64% 29.61 in 10.0 mi West 11.5 mph - N/A   Scattered Clouds
10:15 PM 32.0 °F 23.6 °F 23.0 °F 69% 29.61 in 10.0 mi West 10.4 mph 16.1 mph N/A   Overcast
10:35 PM 32.0 °F 23.0 °F 23.0 °F 69% 29.61 in 10.0 mi West 11.5 mph - N/A   Overcast
10:55 PM 32.0 °F 24.2 °F 24.8 °F 75% 29.60 in 10.0 mi West 9.2 mph - N/A   Overcast
11:15 PM 32.0 °F 24.8 °F 24.8 °F 75% 29.60 in 10.0 mi West 8.1 mph - N/A   Overcast
11:35 PM 32.0 °F 25.6 °F 26.6 °F 80% 29.58 in 7.0 mi West 6.9 mph - N/A Snow Light Snow
11:55 PM 32.0 °F 28.7 °F 26.6 °F 80% 29.58 in 10.0 mi SW 3.5 mph - N/A   Overcast